{"data":{"norad_id":61982,"epoch":"2026-05-25T04:43:38.174304Z","epoch_age_seconds":57727,"freshness":"FRESH","line1":"1 61982U 24210Z   26145.19696961  .00018218  00000+0  66967-3 0  9996","line2":"2 61982  42.9950 107.4970 0000574 290.1724  69.9066 15.27590793 86587","mean_motion":15.27590793,"eccentricity":5.74e-5,"inclination_deg":42.995,"raan_deg":107.497,"arg_perigee_deg":290.1724,"mean_anomaly_deg":69.9066,"bstar":0.00066967,"rev_number":8658,"period_min":94.266082683833,"perigee_km":482.62294787831,"apogee_km":483.41060833204,"semimajor_km":6861.1537781052,"source":"CELESTRAK","updated_at":"2026-05-25T13:38:19.517901Z"}}